Location: *
(46.1006°N, 1.8394°E)
Time: 23:22:27
(UTC+00:00)

CZ-2C R/B - Pass Details

Date: 20 September 2019
Orbit: 705 x 907 km, 98.1° (Epoch: 14 October)

Event Time Altitude Azimuth Distance (km) Brightness Sun altitude
Exits shadow 20:45:59 46° 226° (SW) 1,093 3.7 -28.6°
Maximum altitude 20:46:58 52° 261° (W) 1,019 3.7 -28.7°
Drops below altitude 10° 20:52:22 10° 338° (NNW) 2,496 6.3 -29.4°
Sets 20:54:54 0° 343° (NNW) 3,464 7.2 -29.8°
